FW1048 Weather Reports


Display with metric or nautical units.
time (UTC)temp
F
wind
direction
speed
MPH
gust
MPH
rain 1hr
in
rain 24hr
in
rain mn
in
humidity
%
barometer
mb
20260507162314 63 282 3.0 10.0 0.00 0.43 0.03 62 1013.0
20260507161314 64 329 2.0 5.0 0.00 0.43 0.03 63 1012.9
20260507160814 65 225 2.0 10.0 0.00 0.43 0.03 62 1012.9
20260507160314 65 333 3.0 10.0 0.00 0.43 0.03 63 1012.9
20260507155815 65 44 1.0 3.0 0.00 0.43 0.03 62 1012.8
20260507155314 65 0 0.0 3.0 0.00 0.43 0.03 61 1012.7
20260507154814 66 40 1.0 6.0 0.00 0.43 0.03 60 1012.6
20260507154314 66 276 3.0 6.0 0.00 0.43 0.03 60 1012.4
20260507153813 66 98 2.0 3.0 0.00 0.43 0.03 61 1012.2
20260507153314 66 31 1.0 3.0 0.00 0.43 0.03 62 1012.2
20260507152814 67 207 1.0 2.0 0.00 0.43 0.03 61 1012.1
20260507152314 67 208 1.0 2.0 0.00 0.43 0.03 60 1012.0
20260507151814 67 207 1.0 2.0 0.00 0.43 0.03 58 1011.8
20260507150813 68 211 1.0 3.0 0.00 0.43 0.03 56 1011.4
20260507150314 68 107 2.0 3.0 0.00 0.43 0.03 56 1011.2
20260507145814 68 29 1.0 7.0 0.00 0.43 0.03 53 1011.0
20260507145314 69 76 3.0 7.0 0.00 0.43 0.03 53 1011.1
20260507144814 69 103 2.0 6.0 0.00 0.43 0.03 55 1010.9
20260507144314 70 125 3.0 6.0 0.00 0.43 0.03 54 1010.9
20260507143815 70 165 3.0 6.0 0.00 0.43 0.03 53 1010.9
20260507143314 70 103 2.0 9.0 0.00 0.43 0.03 55 1010.9
20260507142314 70 142 3.0 8.0 0.00 0.43 0.03 54 1010.9
20260507141814 71 163 2.0 5.0 0.00 0.43 0.03 55 1010.9
20260507141314 71 330 2.0 9.0 0.00 0.43 0.03 59 1010.9
20260507140814 71 111 3.0 9.0 0.00 0.43 0.03 55 1011.0
20260507140314 71 139 3.0 9.0 0.00 0.43 0.03 57 1011.0
20260507135813 71 104 3.0 9.0 0.00 0.43 0.03 55 1011.0
20260507134814 71 104 3.0 9.0 0.00 0.43 0.03 55 1011.1
20260507134314 71 120 3.0 9.0 0.00 0.43 0.03 55 1011.1
20260507133813 71 128 5.0 9.0 0.00 0.43 0.03 54 1011.1
20260507133314 71 87 3.0 8.0 0.00 0.43 0.03 54 1011.1
20260507132813 72 93 2.0 12.0 0.00 0.43 0.03 52 1011.1
20260507131814 72 132 5.0 9.0 0.00 0.43 0.03 52 1011.2
20260507130813 71 175 1.0 6.0 0.00 0.46 0.03 50 1011.3
20260507130313 72 337 3.0 9.0 0.00 0.46 0.03 53 1011.3
20260507125813 72 107 3.0 9.0 0.00 0.48 0.03 52 1011.3
20260507124814 71 91 3.0 9.0 0.00 0.53 0.03 53 1011.2
20260507123813 69 107 4.0 8.0 0.00 0.56 0.03 64 1011.3
20260507122813 69 326 2.0 8.0 0.00 0.57 0.03 67 1011.3
20260507121815 69 305 2.0 3.0 0.00 0.59 0.03 63 1011.4
20260507121313 70 322 2.0 3.0 0.00 0.61 0.03 63 1011.4
20260507120814 70 26 2.0 3.0 0.00 0.64 0.03 63 1011.4
20260507120313 70 334 1.0 3.0 0.00 0.65 0.03 63 1011.4
20260507115814 69 332 1.0 3.0 0.00 0.65 0.03 62 1011.4
20260507114814 68 330 1.0 2.0 0.00 0.69 0.03 69 1011.5
20260507113813 67 329 1.0 3.0 0.00 0.73 0.03 72 1011.6
20260507113313 68 329 1.0 3.0 0.00 0.75 0.03 74 1011.6
20260507112813 68 355 2.0 3.0 0.00 0.76 0.03 70 1011.7
20260507112314 67 355 1.0 3.0 0.00 0.77 0.03 73 1011.7
20260507111814 67 355 2.0 3.0 0.00 0.79 0.03 70 1011.7
20260507110814 67 355 1.0 3.0 0.00 0.80 0.03 73 1011.9
20260507110313 66 355 2.0 3.0 0.00 0.80 0.03 75 1011.9
20260507105813 66 355 0.0 3.0 0.00 0.80 0.03 74 1011.9
20260507105313 66 355 1.0 3.0 0.00 0.80 0.03 74 1012.0
20260507104313 66 355 0.0 3.0 0.00 0.80 0.03 77 1012.0
20260507103813 66 355 1.0 3.0 0.00 0.81 0.03 76 1012.0
20260507102813 67 355 0.0 2.0 0.00 0.83 0.03 75 1012.1
20260507102313 67 355 0.0 3.0 0.00 0.83 0.03 70 1012.1
20260507101814 67 355 1.0 7.0 0.00 0.84 0.03 72 1012.1
20260507101314 68 30 2.0 7.0 0.00 0.84 0.03 71 1012.1
20260507100813 69 131 3.0 7.0 0.00 0.84 0.03 67 1012.1
20260507100313 69 111 2.0 6.0 0.00 0.84 0.03 70 1012.1
20260507095813 68 113 2.0 7.0 0.00 0.84 0.03 67 1012.1
20260507095313 69 136 3.0 7.0 0.00 0.84 0.03 67 1012.0
20260507094813 69 129 3.0 7.0 0.00 0.84 0.03 69 1012.1
20260507094314 68 98 2.0 3.0 0.00 0.85 0.03 72 1012.1
20260507093813 67 97 1.0 3.0 0.00 0.85 0.03 71 1012.1
20260507093313 67 97 1.0 3.0 0.00 0.85 0.03 73 1012.1
20260507092814 67 97 2.0 5.0 0.00 0.85 0.03 74 1012.1
20260507092313 66 140 1.0 5.0 0.00 0.85 0.03 74 1012.1
20260507091814 66 172 2.0 3.0 0.00 0.86 0.03 74 1012.1
20260507091314 66 173 1.0 3.0 0.00 0.86 0.03 76 1012.0
20260507090813 67 173 1.0 3.0 0.00 0.86 0.03 74 1012.1
20260507085313 65 163 2.0 3.0 0.00 0.88 0.03 77 1012.0
20260507083814 65 124 3.0 7.0 0.00 0.92 0.03 82 1012.1
20260507082813 65 157 2.0 7.0 0.00 0.98 0.03 82 1012.0
20260507081814 65 101 2.0 7.0 0.00 1.07 0.03 84 1012.1
20260507081313 64 105 3.0 6.0 0.00 1.10 0.03 86 1012.0
20260507080814 64 133 3.0 3.0 0.00 1.13 0.03 87 1012.0
20260507075813 64 116 1.0 3.0 0.00 1.18 0.03 84 1012.0
20260507075313 64 116 1.0 3.0 0.00 1.19 0.03 85 1012.1
20260507074813 64 116 1.0 3.0 0.00 1.20 0.03 86 1012.0
20260507074313 63 112 2.0 3.0 0.00 1.21 0.03 86 1012.0
20260507073813 63 112 1.0 3.0 0.00 1.22 0.03 89 1011.9
20260507073314 62 117 1.0 3.0 0.00 1.24 0.03 89 1012.0
20260507072313 62 135 1.0 6.0 0.00 1.28 0.03 89 1011.8
20260507071813 62 314 1.0 6.0 0.00 1.30 0.03 90 1011.9
20260507071313 63 136 3.0 6.0 0.00 1.32 0.03 90 1011.9
20260507070813 63 103 1.0 3.0 0.00 1.35 0.03 90 1011.9
20260507070313 62 190 1.0 3.0 0.00 1.38 0.03 91 1011.8
20260507065813 62 190 1.0 3.0 0.00 1.40 0.03 91 1011.8
20260507065313 61 190 0.0 2.0 0.00 1.42 0.03 91 1011.9
20260507064813 61 190 1.0 2.0 0.00 1.43 0.03 91 1011.8
20260507064313 61 152 1.0 2.0 0.00 1.44 0.03 94 1011.8
20260507063813 60 152 0.0 1.0 0.00 1.46 0.03 96 1011.7
20260507063313 59 152 0.0 2.0 0.00 1.48 0.03 97 1011.7
20260507062813 59 152 1.0 3.0 0.00 1.50 0.03 98 1011.7
20260507062313 58 144 1.0 3.0 0.00 1.50 0.03 98 1011.7
20260507061313 58 166 0.0 2.0 0.00 1.50 0.03 99 1011.8
20260507060813 57 149 1.0 2.0 0.00 1.50 0.03 99 1011.8
20260507060313 57 147 0.0 2.0 0.00 1.50 0.03 98 1011.8
20260507055313 56 147 0.0 1.0 0.00 1.50 0.03 99 1011.7
20260507054813 56 147 0.0 1.0 0.00 1.50 0.03 99 1011.8
20260507054313 56 147 0.0 2.0 0.00 1.50 0.03 99 1011.8
20260507053813 55 147 0.0 2.0 0.00 1.50 0.03 99 1011.8
20260507053313 55 155 1.0 3.0 0.00 1.50 0.03 98 1011.7
20260507052812 55 156 1.0 3.0 0.00 1.50 0.03 98 1011.6
20260507052313 55 156 2.0 3.0 0.00 1.50 0.03 99 1011.6
20260507051813 55 177 0.0 2.0 0.00 1.50 0.03 98 1011.4
20260507051313 55 152 0.0 0.0 0.00 1.50 0.03 98 1011.4
20260507050313 55 153 0.0 0.0 0.00 1.50 0.03 98 1011.3
20260507045813 55 153 0.0 1.0 0.00 1.50 0.03 98 1011.3
20260507045312 55 153 0.0 2.0 0.00 1.50 0.03 98 1011.2
20260507044813 55 153 0.0 2.0 0.00 1.50 0.03 98 1011.2
20260507044313 55 153 1.0 2.0 0.00 1.50 0.03 98 1011.1
20260507043813 55 153 0.0 1.0 0.00 1.50 0.03 98 1011.0
20260507043312 55 153 0.0 1.0 0.00 1.50 0.03 98 1011.1
20260507042814 55 153 0.0 2.0 0.00 1.50 0.03 98 1011.1
20260507042313 55 153 0.0 2.0 0.00 1.50 0.03 98 1011.0
20260507041813 55 153 1.0 2.0 0.00 1.50 0.03 98 1011.0
20260507041312 55 155 0.0 2.0 0.00 1.50 0.03 98 1011.1
20260507040813 55 153 1.0 2.0 0.00 1.50 0.03 98 1011.0
20260507040312 55 153 0.0 2.0 0.00 1.50 0.03 98 1010.9
20260507035813 55 153 0.0 2.0 0.00 1.50 0.03 98 1010.9
20260507035314 55 153 0.0 0.0 0.00 1.50 0.03 98 1010.9
20260507034312 55 153 0.0 2.0 0.00 1.50 0.03 98 1010.8
20260507033813 55 153 0.0 2.0 0.00 1.50 0.03 98 1010.9
20260507033312 55 153 0.0 1.0 0.00 1.50 0.03 98 1010.8
20260507032813 55 153 0.0 2.0 0.00 1.50 0.03 98 1010.8
20260507032313 55 153 0.0 2.0 0.00 1.50 0.03 98 1010.8
20260507031813 55 153 0.0 2.0 0.00 1.50 0.03 98 1010.8
20260507031312 55 153 0.0 2.0 0.00 1.50 0.03 98 1010.7
20260507030814 55 153 1.0 2.0 0.00 1.54 0.03 98 1010.8
20260507030312 55 153 1.0 2.0 0.00 1.55 0.03 98 1010.8
20260507025812 55 154 0.0 2.0 0.00 1.61 0.03 98 1010.8
20260507025313 55 153 0.0 3.0 0.00 1.61 0.03 98 1010.7
20260507023812 55 138 0.0 3.0 0.00 1.61 0.03 98 1010.7
20260507023312 55 138 0.0 3.0 0.00 1.61 0.03 98 1010.7
20260507022813 55 138 1.0 3.0 0.00 1.61 0.03 98 1010.5
20260507022312 55 138 1.0 2.0 0.00 1.61 0.03 98 1010.5
20260507021813 55 138 0.0 2.0 0.00 1.61 0.03 98 1010.6
20260507021312 55 138 0.0 1.0 0.00 1.61 0.03 98 1010.6
20260507015312 55 137 1.0 3.0 0.00 1.61 0.03 98 1010.6
20260507014812 55 122 0.0 2.0 0.01 1.61 0.03 98 1010.6
20260507014312 55 122 0.0 2.0 0.01 1.61 0.03 98 1010.7
20260507013812 55 122 0.0 0.0 0.01 1.61 0.03 98 1010.7
20260507013313 56 122 0.0 2.0 0.01 1.61 0.03 98 1010.6
20260507012813 56 122 1.0 3.0 0.01 1.61 0.03 98 1010.5
20260507011813 56 300 1.0 2.0 0.01 1.61 0.03 98 1010.4
20260507011312 55 299 0.0 2.0 0.01 1.62 0.03 98 1010.4
20260507010813 56 300 0.0 3.0 0.01 1.62 0.03 98 1010.4
20260507010312 56 300 1.0 3.0 0.01 1.63 0.03 98 1010.4
20260507005813 56 299 0.0 3.0 0.01 1.64 0.03 98 1010.4
20260507005312 56 299 1.0 2.0 0.01 1.64 0.03 98 1010.4
20260507004812 56 299 0.0 2.0 0.00 1.64 0.02 98 1010.4
20260507004312 56 299 1.0 2.0 0.00 1.65 0.02 98 1010.5
20260507003813 56 299 0.0 2.0 0.00 1.65 0.02 98 1010.5
20260507003312 56 299 0.0 3.0 0.00 1.65 0.02 98 1010.6
20260507002813 56 299 1.0 3.0 0.00 1.66 0.02 98 1010.7
20260507002312 56 167 1.0 3.0 0.00 1.66 0.02 98 1010.8
20260507001812 56 296 0.0 3.0 0.00 1.69 0.02 98 1010.8
20260507001312 55 296 1.0 3.0 0.00 1.69 0.02 98 1010.7
20260507000813 56 296 1.0 3.0 0.00 1.69 0.02 98 1010.7
20260507000314 56 296 1.0 3.0 0.00 1.69 0.02 98 1010.7
20260506235812 56 296 2.0 3.0 0.00 1.69 0.02 98 1010.7
20260506235313 55 296 0.0 3.0 0.00 1.69 0.02 98 1010.7
20260506234312 55 295 1.0 3.0 0.00 1.69 0.02 98 1010.9
20260506233812 55 295 1.0 3.0 0.00 1.69 0.02 98 1010.8
20260506233312 56 296 0.0 3.0 0.00 1.70 0.02 98 1010.9
20260506232812 56 272 1.0 3.0 0.00 1.71 0.02 98 1011.0
20260506232312 56 245 0.0 3.0 0.01 1.73 0.02 98 1011.0
20260506231812 56 245 2.0 3.0 0.02 1.76 0.02 98 1010.9
20260506231313 56 146 1.0 2.0 0.02 1.77 0.02 98 1010.9
20260506230812 56 146 0.0 1.0 0.02 1.80 0.02 98 1011.1
20260506230312 56 146 1.0 2.0 0.02 1.82 0.02 98 1011.0
20260506225812 56 146 1.0 2.0 0.02 1.84 0.02 98 1010.9
20260506225313 56 146 1.0 2.0 0.02 1.87 0.02 98 1010.9
20260506224812 56 146 0.0 2.0 0.02 1.87 0.02 98 1010.9
20260506224312 56 146 1.0 2.0 0.03 1.87 0.02 98 1010.8
20260506223812 56 145 1.0 2.0 0.03 1.87 0.02 98 1010.8
20260506222812 56 144 1.0 5.0 0.03 1.88 0.02 98 1010.8
20260506222312 56 354 2.0 5.0 0.02 1.87 0.02 98 1010.7
20260506221812 56 173 2.0 5.0 0.02 1.87 0.01 98 1010.7
20260506221312 56 264 1.0 3.0 0.01 1.86 0.00 98 1010.7
20260506220819 56 265 0.0 6.0 0.01 1.86 0.00 98 1010.7
20260506215312 56 272 1.0 2.0 0.03 1.86 1.86 98 1010.5
20260506214811 56 272 0.0 2.0 0.03 1.86 1.86 98 1010.7
20260506214312 56 272 1.0 2.0 0.03 1.86 1.86 98 1010.7
20260506213812 56 272 1.0 2.0 0.02 1.85 1.85 98 1010.6
20260506213312 56 246 0.0 2.0 0.02 1.85 1.85 98 1010.6
20260506212812 56 246 0.0 3.0 0.02 1.85 1.85 98 1010.6
20260506212312 56 246 1.0 3.0 0.02 1.86 1.85 98 1010.6
20260506211812 56 236 1.0 2.0 0.02 1.87 1.85 98 1010.6
20260506211312 57 236 0.0 2.0 0.02 1.87 1.85 98 1010.6
20260506210811 57 236 0.0 2.0 0.02 1.87 1.85 98 1010.7
20260506210312 57 235 1.0 3.0 0.02 1.86 1.84 98 1010.7
20260506205311 57 225 1.0 2.0 0.00 1.84 1.83 98 1010.9
20260506204812 57 225 0.0 2.0 0.00 1.84 1.83 98 1010.9
20260506203812 57 225 1.0 3.0 0.00 1.85 1.83 98 1010.9
20260506203312 57 217 2.0 5.0 0.00 1.85 1.83 98 1010.7
20260506202812 57 168 1.0 5.0 0.00 1.85 1.83 98 1010.7
20260506202312 57 274 1.0 2.0 0.02 1.85 1.83 98 1010.6
20260506201812 57 273 0.0 2.0 0.03 1.86 1.83 98 1010.5
20260506201312 57 274 1.0 2.0 0.06 1.87 1.83 98 1010.5
20260506200812 57 274 0.0 2.0 0.10 1.89 1.83 98 1010.5
20260506200312 57 274 0.0 2.0 0.17 1.89 1.83 98 1010.6
20260506195812 57 274 0.0 2.0 0.19 1.91 1.83 98 1010.6
20260506195312 57 274 0.0 3.0 0.24 1.93 1.83 98 1010.6
20260506193813 57 205 2.0 3.0 0.27 2.03 1.83 97 1010.3
20260506193311 57 94 1.0 3.0 0.28 2.06 1.83 97 1010.2
20260506192811 57 340 2.0 3.0 0.28 2.08 1.83 97 1010.1
20260506192312 57 340 1.0 3.0 0.26 2.09 1.81 97 1009.9
20260506191811 57 340 1.0 3.0 0.24 2.09 1.80 97 1009.7
20260506191312 57 313 3.0 3.0 0.21 2.09 1.76 97 1009.8
20260506190812 57 186 2.0 3.0 0.17 2.08 1.72 97 1009.8
20260506190312 57 255 1.0 2.0 0.10 2.03 1.65 97 1009.5
20260506185812 57 255 1.0 3.0 0.09 2.03 1.64 97 1009.5
20260506185312 57 255 2.0 3.0 0.04 2.00 1.59 97 1009.4
20260506184812 57 255 1.0 3.0 0.01 1.99 1.56 97 1009.4
20260506184311 57 255 1.0 3.0 0.01 2.03 1.56 97 1009.3
20260506183812 57 252 1.0 3.0 0.01 2.06 1.56 97 1009.3
20260506182811 57 252 0.0 3.0 0.02 2.09 1.55 97 1009.5
20260506182312 57 252 0.0 3.0 0.02 2.13 1.55 97 1009.5
20260506181812 57 142 1.0 3.0 0.04 2.15 1.55 97 1009.4
20260506181311 57 265 0.0 3.0 0.06 2.17 1.55 97 1009.4
20260506180812 57 250 1.0 3.0 0.09 2.18 1.55 97 1009.4
20260506175811 57 147 2.0 3.0 0.09 2.20 1.55 97 1009.6
20260506174811 57 126 2.0 5.0 0.09 2.22 1.55 97 1009.6
20260506174312 57 109 2.0 6.0 0.09 2.24 1.55 97 1009.6
20260506173811 58 157 3.0 9.0 0.09 2.25 1.55 97 1009.3
20260506173312 58 127 5.0 9.0 0.09 2.26 1.55 97 1009.2
20260506172812 58 123 2.0 3.0 0.07 2.25 1.54 97 1009.1
20260506172312 58 123 2.0 3.0 0.06 2.26 1.53 97 1009.0
20260506171811 58 75 1.0 3.0 0.05 2.25 1.51 97 1008.9
20260506171311 58 318 1.0 3.0 0.02 2.24 1.49 97 1008.8
20260506170811 57 317 1.0 3.0 0.00 2.21 1.46 97 1008.6
20260506170312 57 317 0.0 1.0 0.00 2.24 1.46 97 1008.6
20260506165811 57 317 0.0 3.0 0.00 2.24 1.46 97 1008.6
20260506165311 57 317 1.0 3.0 0.00 2.24 1.46 97 1008.7
20260506164812 57 317 2.0 3.0 0.00 2.26 1.46 97 1008.8
20260506164311 58 317 1.0 2.0 0.00 2.28 1.46 97 1008.8
20260506163811 58 317 0.0 1.0 0.00 2.29 1.46 97 1008.9
20260506163312 58 317 0.0 1.0 0.00 2.29 1.46 97 1009.0
20260506162812 58 317 0.0 3.0 0.00 2.30 1.46 97 1009.0